Find Starlink 30286

NORAD ID: 57647 Int'l Des: 2023-122 Owner: SPXS Country: US Constellation: starlink operational
LEOCIRCULAR

Aktuelle Ansicht

3D-Globus wird geladen...

Über Starlink 30286

Beschreibung wird geladen...

Nächste Überflüge

Passes for default location (London). Set your location on the main map for personalized predictions.

Höhenverlauf

Loading altitude history...

Zweizeiliger Elementsatz

1 57647U 23122R 26145.94506705 .00003916 00000-0 15176-3 0 9995
2 57647 43.0057 16.0767 0001007 289.0295 71.0448 15.27581057154027
Epoch: 25. Mai 2026 • Age: 20 hours

Aktueller Status

Höhe 488.7 km
Geschwindigkeit 7.62 km/s
Subsatellitenpunkt -24.17°S, 58.83°E
Startdatum 17. Aug. 2023
Alter 2.7 years
Typ internet

Technische Details

Klassifizierung Payload
Masse 730.00 kg
Trockenmasse 700.00 kg
Gesamtmasse 730.00 kg
Länge 0.30 m
Durchmesser 4.10 m
Spannweite 29.00 m
Form Box + pan
Hersteller SPXS
Bus-Typ Starlink V2M
Phasenstatus In Orbit
Besitzer/Staat SPXS/US

Most Searched